Regional Weather Roundup
Issued by NWS

Home | Current Version | Previous Version | Graphics & Text | Print | Product List | Glossary On
Versions: 1 2 3 4 5 6 7 8 9 10 11 12 13 14 15 16 17 18 19 20 21 22 23 24 25 26 27 28 29 30 31 32 33 34 35 36 37 38 39 40 41 42 43 44 45 46 47 48 49 50
016
ASUS43 KDTX 280510
RWRMI
MICHIGAN HOURLY REGIONAL WEATHER ROUNDUP
NATIONAL WEATHER SERVICE DETROIT/PONTIAC MI
100 AM EDT THU JUL 28 2016

NOTE: "FAIR" INDICATES FEW OR NO CLOUDS BELOW 12,000 FEET WITH NO
SIGNIFICANT WEATHER AND/OR OBSTRUCTION TO VISIBILITY.

MIZ047>049-052>055-059>063-066>070-074>076-081>083-280600-
SOUTHEAST LOWER MICHIGAN

CITY           SKY/WX    TMP DP  RH WIND       PRES   REMARKS
ADRIAN         CLEAR     70  65  84 N3        29.96S
ALMA           FOG       66  66 100 S3        29.96F VSB 3/4
ANN ARBOR      CLEAR     66  64  93 CALM      29.95F
BAD AXE        FOG       63  63  99 CALM      29.97S VSB 1/4
CARO           MOCLDY    65  64  98 CALM      29.96S FOG
DETROIT CITY   CLEAR     75  69  81 SE3       29.93F
DETROIT        MOCLDY    75  64  68 NW6       29.94F
FLINT          PTCLDY    68  63  84 CALM      29.96F
GROSSE ILE     CLEAR     74  66  77 CALM      29.93S
HILLSDALE      CLEAR     65  62  91 CALM      29.97F
HOWELL         CLEAR     67  64  91 CALM      29.97S

CITY           SKY/WX    TMP DP  RH WIND       PRES   REMARKS
JACKSON        CLEAR     65  64  97 CALM      29.97S
LAMBERTVILLE   PTCLDY    70  66  85 CALM      29.95S
LANSING        CLEAR     67  62  84 CALM      29.97F
LAPEER         FAIR      64  62  96 CALM      29.97S
MASON          CLEAR     64  62  92 SE3       29.97F
MONROE         CLEAR     70  67  90 CALM      29.93S
MT. CLEMENS    CLEAR     71  67  85 NW7       29.93R
PONTIAC        CLEAR     71  64  78 CALM      29.96R
PORT HOPE        N/A     66  65  96 SW3       29.95S
PORT HURON     PTCLDY    68  64  88 NW3       29.95S
TRI CITIES     PTCLDY    68  67  96 SW3       29.97S
MIDLAND        FAIR      66  66 100 CALM      29.96R FOG
TROY           CLEAR     75  64  67 CALM      29.96S
SAGINAW HB     CLOUDY    66  64  94 CALM      29.95F
$$
MIZ043>046-050>051-056>058-064>065-071>073-077>080-280600-
SOUTHWEST LOWER MICHIGAN

CITY           SKY/WX    TMP DP  RH WIND       PRES   REMARKS
BATTLE CREEK   CLEAR     68  64  87 CALM      29.97F
BENTON HARBOR  PTCLDY    71  65  81 E3        29.93F
BIG RAPIDS     CLOUDY    69  69 100 CALM      29.97S FOG
COLDWATER      CLEAR     67  66  97 CALM      29.96F
FREMONT        FAIR      69  69 100 CALM      29.96S
HOLLAND        PTCLDY    69  65  86 CALM      29.95F
GRAND RAPIDS   PTCLDY    70  63  78 SE3       29.96F
IONIA          FAIR      67  64  89 CALM      29.95F
KALAMAZOO      CLEAR     70  63  78 CALM      29.95F
LUDINGTON      CLOUDY    69  66  90 CALM      29.95S
MARSHALL       CLEAR     67  65  94 CALM      29.96F
MOUNT PLEASANT FOG       66  66  99 CALM      29.96S VSB 1
MUSKEGON       CLEAR     72  70  93 CALM      29.95S
SOUTH HAVEN    CLOUDY    66  65  97 CALM      29.94F
$$
MIZ016>042-280600-
NORTHERN LOWER MICHIGAN

CITY           SKY/WX    TMP DP  RH WIND       PRES   REMARKS
ALPENA         CLOUDY    68  65  90 CALM      29.96S
BEAVER ISLAND  CLOUDY    65  57  75 N5        29.99S
BELLAIRE       CLOUDY    71  63  76 N3        29.97R
CADILLAC       MOCLDY    66  65  94 CALM      29.98S
CHARLEVOIX     MOCLDY    71  56  60 N9        30.00S
FRANKFORT      PTCLDY    71  66  83 CALM      29.96S
GAYLORD        CLOUDY    69  55  60 NE6       29.99R
GRAYLING       CLOUDY    71  66  84 CALM      29.99R
HARBOR SPRINGS PTCLDY    68  56  64 N3        29.98R
HOUGHTON LAKE  MOCLDY    68  67  96 CALM      29.98S
MANISTEE       CLOUDY    70  64  81 N5        29.96S
OSCODA         CLOUDY    66  65  95 W6        29.96R
PELLSTON       CLOUDY    65  58  78 W3        29.98S
ROGERS CITY    CLOUDY    66  59  77 W3        29.98S
TRAVERSE CITY  CLOUDY    73  67  81 N3        29.95R
$$
MIZ007>008-015-280600-
EASTERN UPPER MICHIGAN

CITY           SKY/WX    TMP DP  RH WIND       PRES   REMARKS
KINROSS        PTCLDY    61  56  83 NW10      29.99R
MACKINAC ISLAN CLOUDY    64  56  75 N8        29.99R
NEWBERRY       MOCLDY    59  57  94 NW6       30.00S
S. S. MARIE    MOCLDY    63  57  81 NW8       29.97S
$$
MIZ004>006-011>014-085-280600-
CENTRAL UPPER MICHIGAN

CITY           SKY/WX    TMP DP  RH WIND       PRES   REMARKS
MANISTIQUE     CLOUDY    61  58  90 N7        30.00R
ESCANABA       CLOUDY    63  57  82 N6        30.00R
MENOMINEE      RAIN     N/A N/A N/A N10       30.01F
SAWYER-GWINN   LGT RAIN  59  57  94 CALM      30.04S
$$
MIZ001>003-009>011-084-280600-
WESTERN UPPER MICHIGAN

CITY           SKY/WX    TMP DP  RH WIND       PRES   REMARKS
IRON MOUNTAIN  LGT RAIN  62  58  86 CALM      30.02S
HOUGHTON       CLOUDY    60  57  89 CALM      30.03S
COPPER HARBOR    N/A     58  55  90 W3        30.02S
IRONWOOD       CLOUDY    61  59  94 E5        30.01F
$$

ABBREVIATIONS USED IN REMARKS
   TC - TEMPERATURE IN CELSIUS
  WCI - WIND CHILL INDEX
   HX - HEAT INDEX
  VSB - VISIBILITY





USA.gov is the U.S. government's official web portal to all federal, state and local government web resources and services.